Theta_e
353 351 351 352 351 350 350 351 351 350 350 349 348 347 350 349 348 348 348 349 349 349 350 350 350 350 350 351 350 349 349 348 348 349 350 349 349 349 349 349 349 349 349 349 349 349 348 348 347 347 346 345 344 346 346 346 347 346 346 347 347 346 345 344 344 344 345 345 345 346 347 347 347 347 346 344 344 345 345 346 345 345 345 344 344
353 351 350 351 352 352 351 351 351 350 349 348 347 348 350 350 349 349 348 349 349 350 351 351 351 351 351 351 350 350 350 349 349 349 349 349 349 350 349 350 350 350 350 349 349 348 349 349 348 348 348 347 346 348 348 348 348 347 347 347 347 346 345 345 345 345 345 345 346 347 347 347 347 347 346 345 344 344 345 345 345 345 345 345 345
354 353 352 352 352 353 352 352 351 350 349 348 349 350 351 351 351 350 349 349 349 350 351 351 351 350 351 351 350 350 350 349 349 349 350 350 351 350 350 350 350 349 348 348 348 348 348 348 349 349 349 348 347 348 348 348 348 347 347 347 347 347 346 345 345 345 346 346 347 348 347 347 347 347 346 345 344 344 344 345 345 345 345 345 345
354 353 354 354 353 353 353 354 353 352 352 352 353 352 351 350 351 351 351 351 349 350 350 350 350 350 350 350 350 349 349 349 350 350 350 350 350 349 349 349 348 348 348 348 349 348 349 349 348 348 349 348 347 347 348 348 347 347 347 346 346 346 346 345 345 345 345 346 348 348 348 347 347 347 347 345 345 345 345 346 345 345 344 345 345
354 354 354 354 354 354 354 354 354 353 353 353 353 352 351 351 351 351 351 351 351 350 350 350 350 350 350 350 350 350 350 350 350 349 349 348 348 347 348 348 349 349 349 349 350 349 349 348 348 348 348 349 348 348 348 348 347 347 346 346 346 346 346 346 346 345 345 346 348 348 348 348 347 347 347 346 347 346 347 346 346 345 344 345 345
355 355 354 354 354 354 354 354 353 352 351 351 350 351 351 351 351 351 350 351 350 351 350 350 350 350 350 350 351 351 350 350 348 348 347 347 348 348 348 348 349 349 349 349 349 350 349 348 348 348 348 349 350 350 349 348 348 347 347 347 347 347 346 346 346 345 346 347 348 348 348 348 348 348 348 347 347 347 347 347 346 346 346 346 345
355 355 355 355 355 354 354 354 353 353 351 350 350 350 351 351 351 351 351 350 350 350 350 350 350 350 350 350 350 350 349 348 348 348 348 348 348 348 348 349 348 348 349 349 349 349 349 348 348 348 348 348 349 349 349 349 349 348 348 348 348 348 348 347 346 346 346 347 347 348 348 349 348 348 348 348 348 347 347 347 347 347 347 347 347
355 356 356 355 355 354 353 352 352 352 351 351 351 351 351 351 351 351 351 351 351 351 350 350 350 349 349 349 348 348 347 347 348 347 347 347 347 348 347 347 348 348 348 349 349 349 349 348 348 348 347 348 348 348 349 348 348 348 347 347 348 348 348 348 347 347 347 347 347 347 347 348 348 348 348 349 349 348 347 346 347 348 347 348 347
355 356 355 355 354 352 351 352 351 350 350 351 351 350 350 350 350 350 350 350 349 349 349 349 349 348 347 347 346 345 344 345 345 345 345 345 346 345 346 347 347 347 348 348 348 349 349 348 348 348 348 348 348 348 349 348 348 348 348 348 348 348 347 348 348 347 347 346 347 347 346 346 347 347 348 349 349 349 348 347 347 348 347 348 348
354 355 355 353 352 350 348 349 349 349 348 347 347 348 348 347 347 348 348 346 345 345 346 346 346 344 344 343 342 341 340 339 339 339 339 339 340 341 342 344 345 345 346 347 348 348 348 348 348 348 349 349 349 348 349 348 348 348 348 348 348 348 348 348 348 347 348 348 347 347 347 347 347 347 348 348 349 350 350 349 348 348 348 347 347
354 355 354 352 349 348 345 344 344 344 341 338 338 340 344 345 343 342 341 339 339 338 338 339 340 339 339 338 336 335 333 332 331 330 330 330 331 331 332 334 337 339 340 342 345 346 346 346 346 346 347 348 348 348 348 349 349 348 348 348 348 349 349 349 348 348 348 348 348 347 348 348 347 347 347 348 349 350 350 350 349 349 349 348 347
354 355 353 350 348 347 345 343 341 339 337 335 334 333 336 338 336 335 333 331 331 332 332 333 334 336 335 334 333 333 331 330 327 325 325 325 324 324 324 325 327 330 332 334 338 341 344 344 343 344 345 346 346 346 347 347 348 348 348 348 348 349 348 348 349 349 348 348 348 348 348 347 347 347 347 348 349 350 350 350 350 349 349 348 347
354 354 352 350 348 347 345 343 342 339 337 337 335 330 328 328 327 328 328 327 328 330 333 333 332 334 335 334 335 335 333 331 329 327 326 324 323 322 322 322 322 324 324 326 330 335 340 341 341 342 343 344 344 344 345 346 347 347 348 348 349 348 348 348 349 349 349 349 348 348 348 348 347 347 347 348 349 349 350 350 349 349 349 349 348
354 353 351 349 348 346 344 342 342 339 337 338 335 329 328 328 326 326 327 325 326 331 335 333 330 330 333 334 334 334 333 331 329 327 326 324 324 324 324 325 324 323 323 323 325 330 335 337 338 340 341 342 343 343 344 344 346 346 347 347 348 348 347 348 348 348 348 349 349 348 348 348 348 347 347 348 349 349 349 349 349 349 349 350 349
354 353 351 349 346 344 342 341 340 336 335 337 333 330 333 334 332 330 328 326 326 330 333 331 329 330 332 332 332 330 329 327 324 324 323 323 324 324 325 326 325 325 325 325 327 329 332 334 336 338 339 340 341 342 342 343 344 345 344 344 345 346 347 347 348 348 348 348 349 348 348 349 348 348 348 348 349 349 349 349 349 350 350 350 349
353 352 350 348 345 342 341 338 338 335 334 334 332 332 335 336 335 334 332 330 329 329 331 330 330 331 332 332 331 327 324 322 321 321 321 321 322 323 324 325 325 326 327 328 329 331 333 335 336 337 338 338 339 340 341 342 343 343 343 342 342 343 344 346 347 346 347 348 348 348 348 349 348 348 348 348 349 349 350 350 350 350 351 351 349
352 351 350 347 344 341 339 337 335 333 332 332 332 334 337 337 336 336 335 334 333 332 332 332 332 332 333 332 329 325 322 321 321 320 320 321 323 324 325 327 327 327 328 329 331 333 334 336 336 337 337 337 338 338 339 340 341 340 341 341 340 340 341 343 344 345 346 347 347 348 348 349 349 348 349 349 350 349 349 349 350 350 351 351 350
351 350 348 345 343 340 338 336 333 330 329 331 333 336 338 338 338 337 337 336 335 336 335 335 336 335 335 332 328 324 322 321 322 321 323 326 328 330 330 331 331 330 329 329 330 331 333 333 334 335 335 335 336 336 337 338 338 339 340 340 340 339 338 339 341 342 343 345 346 347 348 349 349 350 350 349 349 349 348 347 348 349 350 350 350
349 350 347 344 342 340 335 331 329 329 330 332 334 336 338 338 339 337 337 336 336 336 337 337 337 336 334 331 327 324 322 323 324 325 328 330 332 333 333 332 332 331 330 329 328 328 328 329 329 329 330 330 331 332 333 334 335 336 338 339 340 339 337 337 338 338 339 340 343 345 345 347 348 349 349 349 348 348 348 348 348 348 349 350 350
349 348 346 343 341 338 332 326 326 329 331 333 334 335 337 338 338 338 336 335 335 336 337 337 336 334 331 328 324 323 323 323 324 326 328 330 330 330 330 330 329 329 329 329 329 328 328 328 327 327 327 327 327 328 330 331 332 333 336 338 340 340 339 337 336 337 337 337 339 341 343 344 346 346 347 347 348 348 348 348 348 348 348 349 349
349 348 345 343 341 337 329 324 326 330 332 334 334 335 336 337 338 336 335 334 333 334 336 336 334 331 327 325 323 323 324 325 326 326 326 327 328 329 329 329 328 328 328 327 327 328 328 328 328 329 330 330 329 329 329 330 330 331 333 334 336 338 339 338 337 337 336 335 335 339 341 343 345 345 346 346 346 348 348 349 349 349 349 348 348
348 348 345 343 340 333 327 325 327 331 333 333 334 333 334 335 335 333 333 332 331 331 332 332 330 328 326 324 325 325 325 327 327 327 327 328 329 329 328 328 328 327 327 326 326 326 326 327 327 328 330 331 332 332 331 331 331 331 331 331 332 333 334 335 335 336 335 334 336 338 341 342 343 344 344 344 344 346 347 348 349 349 349 348 348
348 348 345 342 339 331 326 326 327 330 331 332 332 331 331 333 332 330 332 333 331 329 329 330 330 328 327 326 326 326 327 329 329 329 329 329 329 328 328 328 327 327 326 325 325 324 325 326 327 327 328 329 331 333 333 333 333 333 333 332 332 332 333 333 334 335 334 334 335 337 339 340 341 341 342 342 342 342 342 344 346 349 350 349 349
347 346 345 341 338 333 329 328 328 330 332 331 330 329 330 332 330 330 333 334 333 331 331 333 332 329 327 327 326 327 328 329 329 329 329 328 328 329 329 329 329 328 326 324 323 323 323 325 327 328 328 328 329 331 333 333 334 334 334 334 334 334 334 334 334 334 334 334 334 334 336 337 337 338 339 339 340 339 339 340 341 344 347 349 349
345 345 344 340 337 334 330 327 329 331 331 331 330 330 330 331 331 332 334 335 335 333 333 333 331 328 327 327 327 327 328 329 329 329 328 329 330 331 331 331 330 329 327 324 322 322 322 324 326 328 328 328 328 329 330 332 333 334 334 334 334 334 334 335 334 335 335 334 334 334 334 334 335 336 338 339 339 339 339 339 339 340 342 345 346
346 345 344 341 337 333 330 328 329 332 333 332 332 331 331 332 333 335 336 336 335 334 332 331 328 327 326 327 327 327 328 329 329 329 329 330 332 332 332 332 331 330 328 325 323 322 322 323 325 328 329 329 330 329 330 331 332 333 333 334 334 334 334 334 334 334 334 334 334 334 334 334 335 335 337 337 339 339 338 338 338 339 340 342 344
346 345 344 342 338 333 331 330 331 333 334 333 333 332 332 333 334 336 337 336 336 333 329 327 326 326 327 328 328 327 328 329 329 329 330 331 332 332 332 332 332 330 328 326 323 322 321 322 324 327 330 331 331 330 330 331 332 333 333 334 334 335 335 335 335 334 334 334 333 334 333 334 335 335 336 338 339 339 338 337 337 337 337 339 341
345 344 343 342 339 334 333 332 333 335 335 335 334 333 333 334 336 337 337 337 335 331 328 327 327 328 330 329 327 326 327 329 329 330 331 332 332 332 333 332 332 330 328 326 324 322 321 321 322 325 328 330 331 331 332 332 332 332 333 334 334 334 335 335 335 335 334 334 334 334 335 335 335 336 337 338 338 339 339 338 337 336 335 336 338
344 343 344 343 340 336 333 333 334 335 336 336 335 334 334 335 336 337 337 337 334 331 329 329 329 332 332 329 326 326 328 329 330 331 332 333 333 333 333 333 332 330 328 326 324 322 321 321 322 323 326 328 330 330 331 332 333 333 333 333 334 334 334 334 334 335 334 335 335 334 335 335 336 335 335 336 337 339 340 340 339 339 339 339 339
343 343 343 343 341 337 335 335 335 335 336 336 336 335 334 335 337 337 337 336 334 332 331 331 333 333 331 329 327 328 330 330 330 331 332 333 333 333 333 332 331 330 328 327 325 323 322 322 323 323 324 326 328 329 330 330 332 333 333 333 333 333 334 334 334 334 334 334 334 335 335 335 335 336 336 337 337 338 339 340 341 341 341 342 342
343 342 343 342 341 338 335 335 336 336 336 337 336 336 335 335 337 337 337 336 333 331 330 332 334 332 330 329 329 329 329 330 331 331 332 333 333 333 333 332 331 329 328 327 325 324 323 324 325 325 324 326 326 328 328 329 330 331 332 333 334 333 333 334 334 334 334 334 334 334 334 334 334 334 335 336 336 337 338 338 339 340 340 341 342
342 342 342 341 340 339 337 336 337 337 337 337 336 336 335 336 338 337 337 335 331 328 329 331 332 329 328 329 329 328 328 329 330 331 332 333 333 332 332 331 330 329 327 326 325 324 324 325 326 326 325 326 326 326 327 327 327 328 330 331 333 333 333 333 333 333 333 333 333 334 334 334 334 333 334 334 334 335 336 337 337 337 337 338 338
341 340 341 340 339 339 338 337 338 338 338 337 337 336 335 337 337 336 336 333 329 328 329 330 330 329 329 330 330 329 329 329 331 331 332 333 332 331 331 330 330 328 326 326 325 324 324 325 326 327 326 326 325 326 326 327 327 327 328 330 332 333 333 333 333 333 332 333 333 333 333 334 333 334 333 333 333 334 334 335 336 336 337 336 336
341 340 341 339 339 340 339 338 338 338 337 337 336 336 337 338 337 336 335 332 329 330 331 331 331 331 332 332 332 331 331 331 333 333 332 332 332 331 330 330 329 328 326 326 325 324 325 325 327 327 327 327 327 326 327 327 327 327 327 328 330 332 333 333 332 332 332 333 333 333 334 334 334 334 334 334 333 333 333 334 335 336 337 337 337
341 341 341 340 340 340 339 339 339 337 337 337 336 337 338 338 336 335 334 330 328 331 332 332 333 333 332 332 332 332 333 333 333 332 331 331 331 330 330 329 329 327 327 326 325 325 325 326 326 327 327 328 328 328 328 328 328 327 326 326 328 331 332 333 333 332 332 333 333 333 334 334 334 334 334 334 333 333 334 334 335 335 336 336 337
343 342 341 341 341 340 340 340 338 337 336 336 337 338 338 337 335 333 331 330 330 332 333 333 333 332 330 330 331 333 333 333 331 331 331 330 329 329 328 328 328 326 325 325 325 326 326 326 326 326 326 326 327 328 328 329 328 327 326 325 327 330 332 332 333 333 332 332 333 333 333 334 334 334 333 332 332 332 333 334 335 335 335 335 335
343 342 342 341 340 340 340 339 337 336 337 338 338 338 337 335 333 332 330 331 332 333 333 334 333 330 328 329 332 332 332 331 331 330 330 328 327 326 325 326 326 325 324 324 325 327 327 327 327 326 325 325 325 325 326 326 326 326 325 325 325 328 330 331 332 333 333 332 332 332 332 333 333 333 333 333 332 332 333 334 334 334 335 335 335
342 341 341 341 340 340 339 338 336 337 338 338 338 337 335 333 332 331 331 332 333 334 334 333 331 329 328 330 331 331 331 331 330 329 327 325 324 323 323 324 326 326 325 325 326 327 327 327 326 326 325 324 324 324 324 324 324 324 325 325 325 326 328 329 331 332 333 333 333 332 332 333 333 333 333 333 333 334 335 335 335 335 335 336 335
341 341 341 340 340 339 338 338 338 339 339 338 336 334 333 332 332 332 333 333 334 333 333 331 329 328 329 331 331 331 331 329 328 326 325 323 322 322 322 323 325 326 326 325 326 326 326 325 325 325 324 324 324 325 324 325 325 324 324 325 325 325 326 327 328 329 330 331 332 332 332 332 332 333 333 333 334 334 335 335 335 335 335 335 335
341 340 340 339 339 338 338 339 339 338 337 335 334 333 332 332 333 333 334 333 333 332 331 330 328 329 330 331 331 330 329 328 327 325 324 323 322 322 322 323 324 325 325 325 325 325 325 325 324 324 324 324 324 325 325 325 325 325 325 325 325 325 325 325 325 325 327 328 329 331 331 331 331 332 332 333 333 333 333 333 333 333 334 333 333
339 339 338 338 339 338 339 339 337 336 335 333 333 332 332 333 333 334 334 333 332 331 330 329 329 330 331 331 330 330 329 327 326 324 323 323 323 323 323 324 324 325 325 325 324 324 324 324 324 324 324 324 325 325 325 325 325 326 326 326 325 325 325 325 325 325 325 325 326 328 329 330 330 330 331 332 332 332 333 332 333 333 332 332 333
340 341 340 340 339 338 337 336 334 333 333 333 333 333 333 334 334 333 333 332 331 330 329 329 330 330 330 330 329 329 328 325 324 323 323 323 323 324 324 324 325 325 325 324 323 323 323 324 325 325 325 325 325 325 325 325 325 326 326 326 326 326 326 326 326 326 325 324 324 325 327 328 329 329 330 331 331 332 332 332 332 333 333 333 333
342 340 339 339 338 335 335 334 334 333 333 333 333 333 333 333 333 332 331 330 329 329 329 330 330 330 330 329 328 327 324 323 323 323 323 324 324 324 325 325 325 325 324 322 321 322 323 324 325 325 325 325 325 325 325 325 325 326 327 327 327 327 327 327 327 327 326 325 325 324 325 326 327 328 329 330 331 331 331 331 332 333 333 333 334
339 338 338 337 336 335 334 333 333 333 333 333 333 333 333 332 331 331 329 329 329 329 330 330 330 329 329 328 326 324 323 322 322 322 322 323 323 323 322 322 322 321 320 321 322 323 324 325 325 325 325 325 325 325 325 325 325 326 327 327 327 328 328 328 328 328 327 327 326 325 324 325 325 326 327 329 330 331 331 331 332 332 333 334 334
337 336 336 335 334 334 333 332 333 332 332 332 332 332 331 330 329 329 328 329 329 330 330 329 329 329 327 325 324 323 323 322 321 320 319 319 318 318 318 318 319 319 321 323 324 324 325 325 325 325 325 325 325 325 325 325 325 326 327 327 328 328 328 328 328 328 328 328 327 326 325 325 325 325 326 328 330 330 330 331 331 332 333 334 335
336 335 334 333 332 331 330 330 330 329 329 329 329 328 328 328 329 329 329 330 330 329 329 329 329 327 325 324 323 322 322 321 319 317 315 315 317 319 320 321 322 322 323 324 325 325 325 325 325 325 325 325 325 325 325 325 325 326 326 327 327 327 327 327 327 328 328 328 328 328 327 326 325 325 327 328 329 329 330 330 330 331 332 333 334
332 331 329 329 327 324 324 324 326 326 326 326 327 328 328 329 329 329 330 330 329 329 329 329 327 326 323 323 322 321 319 317 316 314 315 317 320 322 323 323 323 324 324 324 325 325 325 325 325 324 324 324 324 324 325 325 325 326 326 326 326 327 327 327 327 327 327 327 328 329 328 328 327 327 328 329 329 329 329 330 330 330 331 331 332
328 326 325 325 323 322 322 323 324 325 326 327 328 329 329 330 330 330 330 329 329 329 329 328 326 323 322 321 320 319 317 316 316 317 319 321 323 323 322 323 323 323 324 324 324 324 323 323 323 323 323 323 323 323 324 324 324 325 325 325 326 327 328 328 327 326 326 326 327 328 329 329 329 329 329 330 330 330 329 329 330 330 330 329 329
326 325 324 324 323 323 323 324 326 327 328 329 330 330 330 330 330 329 329 329 329 328 327 326 324 322 321 321 319 317 317 318 319 321 322 323 323 323 323 323 323 323 323 324 323 323 322 322 322 322 322 323 322 322 323 323 323 323 323 324 326 327 328 328 327 326 326 326 327 328 328 328 328 329 329 330 330 330 330 330 330 330 329 329 329
326 325 324 324 324 325 326 326 328 329 330 331 331 331 330 330 329 329 329 328 327 327 325 324 323 322 322 320 318 318 319 321 322 322 322 322 322 323 323 323 323 323 323 323 323 323 322 321 321 321 322 322 322 322 322 322 322 322 322 323 324 325 326 327 327 327 327 327 327 329 329 328 328 328 329 329 330 330 330 330 330 330 329 329 329
326 326 325 325 326 327 327 328 329 330 330 331 331 330 330 329 328 328 328 327 326 326 324 323 323 322 320 318 319 320 321 321 321 321 321 321 321 321 322 322 323 323 323 323 323 323 321 321 321 320 321 321 321 321 321 321 321 321 321 322 322 323 325 326 326 327 327 326 327 328 330 329 329 329 329 330 330 330 330 330 330 330 329 329 329
Wind_Speed
6 7 9 10 10 9 9 10 11 14 16 15 16 15 13 14 14 13 14 16 20 22 23 23 22 21 21 21 22 21 19 18 20 21 20 20 20 22 23 25 25 25 25 25 24 23 23 24 26 27 27 28 27 26 24 22 19 17 16 16 15 15 15 15 14 14 15 17 16 15 14 14 14 15 16 16 15 15 15 15 15 15 17 18 19
9 7 8 11 12 11 10 9 9 10 13 13 14 16 16 16 15 13 12 13 16 19 21 23 22 21 21 21 20 19 19 19 21 22 21 20 20 21 21 22 22 20 20 19 18 19 19 20 21 20 20 21 23 22 21 19 17 16 16 16 16 16 15 14 14 14 15 15 15 16 17 15 14 14 15 17 16 15 15 15 15 15 16 17 17
13 10 8 9 10 11 11 9 8 8 8 10 13 15 15 16 15 14 14 15 16 17 19 21 21 20 21 20 19 19 20 19 18 17 16 16 17 18 17 18 19 18 17 16 15 15 16 17 17 16 15 16 18 18 19 18 17 16 16 17 17 17 16 15 15 15 15 15 15 16 16 15 13 12 13 15 17 16 16 16 16 16 16 16 18
16 14 11 9 9 9 9 8 7 7 7 9 10 11 11 12 12 12 13 14 15 17 19 20 20 19 19 18 18 18 17 14 13 13 14 15 15 15 14 15 16 16 15 14 14 13 13 13 13 13 13 12 13 15 16 16 16 16 16 17 18 19 19 18 17 16 16 15 13 12 12 13 12 9 9 11 13 15 16 16 16 16 16 16 17
15 15 14 12 10 9 9 9 8 7 7 7 7 7 8 8 8 8 9 9 11 12 13 14 14 14 13 13 13 12 11 10 12 13 14 14 13 12 12 12 12 12 12 12 13 12 11 11 11 9 9 9 9 11 13 14 15 15 15 17 18 20 20 20 19 17 17 16 15 14 12 9 8 8 9 9 9 10 11 12 13 13 14 15 16
13 13 14 13 11 10 9 9 9 8 7 7 6 5 5 6 6 5 6 6 7 7 7 8 9 9 9 8 8 9 9 10 12 13 12 12 11 10 10 10 11 11 11 11 12 12 11 11 10 8 7 7 8 10 12 14 15 15 16 16 17 18 18 19 20 18 17 17 17 17 15 12 10 11 12 10 9 9 8 8 8 8 10 12 14
11 11 11 12 11 11 10 9 8 7 7 7 6 5 5 5 4 4 4 4 5 5 5 6 6 5 5 6 7 8 8 8 9 9 10 9 9 9 9 9 10 11 10 10 10 11 12 11 10 9 8 7 8 10 11 13 14 15 16 16 16 15 16 18 19 18 18 18 18 17 16 15 14 15 15 15 14 13 11 9 8 7 8 10 11
12 11 10 10 12 12 11 10 9 8 8 7 6 5 5 4 3 3 2 3 3 3 3 4 3 2 2 3 4 5 5 4 5 6 6 6 7 7 8 8 8 9 9 9 9 10 11 11 10 9 8 7 8 9 10 11 13 14 14 15 16 15 16 17 18 18 19 19 18 18 18 17 16 16 16 16 17 17 16 13 10 10 12 12 11
13 11 9 9 12 12 11 10 9 8 8 8 7 6 5 5 4 3 3 3 3 3 3 3 2 2 2 3 3 3 3 3 4 5 5 5 6 7 7 8 7 7 7 7 6 7 8 8 8 8 7 6 7 8 8 9 11 13 13 14 15 16 16 17 18 18 19 19 19 19 19 18 18 17 17 17 17 19 20 17 13 13 13 12 12
13 11 10 11 12 12 10 10 8 7 7 7 7 6 6 5 5 5 5 4 3 3 3 3 3 3 3 3 3 3 4 4 5 6 7 7 7 7 8 8 8 7 6 6 5 5 5 6 6 6 6 6 6 6 7 8 10 12 12 13 14 15 16 16 17 18 18 19 20 19 20 19 19 19 18 18 18 19 21 20 17 14 13 13 11
14 12 13 13 11 11 10 9 8 7 6 6 5 6 6 5 5 5 4 4 4 4 4 4 4 3 3 3 3 4 4 5 5 6 7 8 8 9 9 10 10 9 8 7 7 7 6 6 6 5 5 5 5 5 6 8 9 12 13 14 14 15 16 17 18 19 19 20 20 20 21 21 21 21 20 19 19 20 20 21 19 15 15 14 12
15 15 16 14 12 11 10 9 7 6 5 5 4 4 5 4 3 3 3 2 3 3 3 2 2 2 2 2 2 3 4 5 6 7 8 9 10 10 11 11 10 10 10 9 9 9 9 8 7 7 6 5 5 6 7 8 9 10 12 14 14 16 17 18 19 19 19 20 21 21 22 22 22 22 21 20 20 21 20 22 21 17 17 16 13
17 18 17 14 12 10 9 8 7 5 4 4 4 5 5 5 4 2 1 0 1 1 1 0 1 1 2 2 2 4 5 7 8 10 10 11 12 12 12 12 12 11 11 10 10 10 10 10 9 8 8 8 8 8 8 10 10 9 10 12 13 16 18 18 19 18 18 20 22 22 22 22 22 22 21 21 21 21 21 23 23 20 19 18 16
19 19 16 13 11 8 7 6 6 4 3 3 4 7 9 9 8 7 5 3 2 1 1 2 3 3 3 4 5 6 8 9 11 12 13 13 13 13 13 14 14 13 12 11 10 10 11 11 11 10 10 10 10 10 10 12 12 11 10 10 10 14 17 17 17 17 19 21 23 24 23 23 23 22 22 22 23 23 23 24 23 21 21 20 19
21 19 15 12 9 7 6 6 5 4 3 3 5 9 10 10 10 8 7 5 3 2 2 3 4 4 5 6 7 8 9 11 12 12 13 14 14 14 14 15 15 15 14 12 11 11 12 13 13 12 12 12 11 12 11 12 13 12 11 10 10 11 14 14 15 15 17 20 23 23 23 23 23 22 23 24 24 24 24 23 22 21 22 22 22
22 19 16 12 9 7 6 6 5 4 4 3 6 9 8 8 8 8 7 6 5 3 3 3 3 5 6 8 9 10 11 11 11 12 12 13 13 14 14 15 15 14 13 12 12 12 13 14 15 15 15 14 14 14 13 13 14 14 14 13 12 11 11 11 12 13 14 17 20 22 22 22 23 22 23 24 24 23 23 22 21 22 23 23 23
22 19 16 12 9 8 7 7 6 5 6 6 8 9 7 6 5 5 5 5 5 5 4 4 5 6 8 10 11 11 11 11 11 11 12 12 12 12 13 13 14 13 13 12 12 13 14 15 16 16 16 17 16 17 16 16 16 17 16 15 15 14 13 12 12 12 13 15 17 19 20 21 22 22 22 22 22 22 23 23 22 22 23 24 24
22 19 16 12 10 9 9 8 6 6 7 9 9 8 6 5 3 2 3 4 5 4 4 4 5 7 10 12 12 12 12 11 11 11 10 10 10 11 12 12 13 13 13 13 13 14 15 16 17 18 18 18 18 18 18 19 19 19 18 17 17 17 16 15 14 14 14 15 16 18 19 21 21 20 21 22 22 23 24 25 25 24 23 23 24
23 20 18 15 12 11 10 9 7 8 8 9 8 7 5 4 2 0 2 4 4 4 4 4 6 8 11 12 12 12 12 11 11 10 10 10 10 11 12 12 13 14 14 14 14 15 16 17 18 19 20 19 19 19 18 19 19 20 19 18 18 18 18 17 17 16 16 16 17 18 19 21 20 19 20 22 21 23 25 25 25 26 26 25 25
24 22 20 16 14 12 11 9 9 9 9 8 7 6 5 4 3 2 3 5 6 6 6 6 8 10 12 12 12 12 11 12 12 11 10 10 11 12 12 13 13 14 14 14 14 15 15 16 16 17 18 18 18 17 17 18 18 19 20 20 19 18 18 19 18 18 17 17 17 17 18 19 19 19 21 21 21 22 23 23 24 26 27 27 27
26 24 21 18 15 13 12 10 10 10 9 8 6 5 4 4 3 3 4 5 7 7 7 8 9 10 11 11 11 11 11 12 12 12 11 11 12 12 12 12 13 13 14 14 14 15 15 15 16 16 16 16 15 15 15 15 17 18 20 21 21 20 20 21 20 19 18 18 18 18 18 17 16 17 19 19 20 21 21 23 23 25 27 27 28
27 26 23 19 17 15 14 12 12 12 10 8 7 5 5 4 4 4 4 5 7 7 7 7 8 9 10 10 11 11 11 12 12 12 12 12 12 12 12 12 12 13 14 15 15 15 15 15 15 15 15 15 15 14 13 14 15 16 18 20 21 22 22 22 22 21 19 18 19 19 18 17 16 17 18 18 19 20 21 22 23 24 26 28 29
28 27 25 21 18 16 15 14 13 13 11 9 7 5 5 5 5 4 4 6 7 6 5 6 8 9 10 10 11 11 12 12 12 11 11 11 11 12 12 13 13 15 16 16 16 16 16 16 16 15 15 15 15 14 14 14 14 14 16 17 18 19 20 21 21 20 19 19 20 20 20 19 18 18 19 18 19 20 21 22 23 24 25 27 28
28 28 26 22 18 16 17 16 14 13 12 10 7 6 6 6 6 5 6 6 7 7 6 7 9 9 9 10 11 12 12 12 12 11 10 10 11 12 13 15 16 17 18 18 18 17 16 16 16 16 16 15 15 15 15 15 15 15 15 16 16 18 19 20 20 20 20 20 21 21 21 21 20 20 20 20 20 21 21 22 23 23 24 26 27
29 29 27 23 20 19 19 19 17 14 13 11 8 7 6 6 6 6 7 6 7 8 8 8 8 8 9 10 12 13 13 12 12 10 9 10 11 13 15 16 18 19 20 20 19 18 17 17 17 17 17 16 16 15 16 16 16 16 16 16 17 17 19 20 21 21 21 21 21 21 21 21 21 21 21 21 21 22 21 21 22 23 24 25 26
30 30 29 26 22 20 21 21 19 16 14 12 9 7 6 5 6 6 7 6 7 9 9 9 8 9 10 12 14 14 13 12 11 9 9 11 12 14 16 18 20 21 21 21 21 20 19 18 17 17 17 17 16 16 16 16 16 17 17 17 17 18 18 19 20 22 22 22 22 22 22 21 21 21 22 22 21 21 22 21 21 22 23 24 25
30 30 30 28 24 22 23 22 20 18 16 14 11 8 6 6 6 7 7 6 7 9 10 9 9 10 12 14 15 14 13 12 11 9 10 12 14 16 18 20 22 22 23 23 22 22 20 18 18 17 17 17 17 17 17 17 17 17 18 18 18 18 19 19 19 20 21 22 23 23 23 22 22 22 22 23 22 22 23 23 22 22 22 23 24
30 31 31 30 27 25 24 24 21 19 18 15 12 10 8 7 8 9 8 6 7 10 11 10 11 12 14 15 15 14 12 12 11 10 12 14 16 17 19 21 23 23 23 24 24 24 22 19 18 17 17 17 18 18 17 17 17 18 18 19 19 19 19 20 20 20 21 22 23 23 23 23 23 23 23 23 23 23 23 23 23 23 23 23 23
32 32 33 32 30 27 26 25 22 20 19 17 14 12 10 8 9 10 9 6 7 10 11 11 12 14 15 16 14 13 12 13 12 12 13 15 17 18 20 22 23 24 24 24 25 25 23 20 18 17 17 17 18 18 17 17 17 18 18 19 20 20 20 20 21 21 21 21 22 23 24 24 24 24 24 24 24 24 24 24 23 22 22 22 22
33 34 34 33 32 29 26 25 24 22 21 19 16 14 12 9 10 11 8 6 8 11 12 12 13 15 16 15 14 13 13 14 14 15 15 17 18 19 22 23 24 24 24 24 25 25 22 20 18 17 17 17 17 17 17 17 17 17 18 19 20 21 22 22 22 22 22 22 22 23 24 24 25 24 24 24 24 24 24 24 23 22 22 22 22
34 34 34 33 33 30 27 26 25 22 21 19 17 15 13 11 12 11 8 7 9 12 14 13 14 15 15 14 14 15 16 16 16 16 17 18 19 21 23 24 24 25 25 25 25 24 22 19 17 17 17 17 17 17 17 17 16 17 18 19 20 22 22 23 23 23 24 23 23 23 23 24 25 25 25 25 25 24 25 25 24 23 23 23 23
34 34 34 33 33 31 29 27 24 22 21 19 18 16 14 12 12 11 8 8 10 13 14 14 15 15 14 14 15 17 17 17 17 17 17 19 20 22 23 24 25 26 26 27 26 24 22 19 18 18 17 17 18 17 17 17 17 17 18 19 20 22 23 23 24 24 25 25 25 24 24 24 25 25 25 26 26 26 26 26 25 25 25 24 24
33 33 33 33 32 31 29 27 23 21 19 18 18 16 14 13 12 10 9 9 10 11 13 15 15 15 16 17 18 19 19 18 18 17 18 19 21 23 24 25 26 27 28 28 27 25 23 21 20 20 20 20 20 19 18 17 17 17 18 19 20 21 23 23 24 25 25 26 26 26 26 26 25 25 25 25 26 26 26 26 27 27 27 26 26
32 32 31 31 31 30 28 25 22 20 19 18 17 15 13 13 11 10 9 10 10 11 14 15 16 16 17 19 20 20 20 19 18 19 20 21 22 23 24 25 27 28 28 28 27 25 23 22 21 21 21 21 21 21 20 19 19 19 19 20 21 22 23 23 24 24 25 26 26 26 27 27 26 25 25 25 26 27 27 27 27 28 28 28 28
30 30 30 30 29 28 27 25 22 20 18 17 16 15 14 12 10 9 11 11 11 13 14 15 16 18 19 20 21 20 19 19 19 20 21 21 22 24 25 26 27 28 28 27 26 24 23 23 22 22 22 22 22 21 20 20 21 21 21 22 22 22 23 23 24 24 24 25 26 26 27 28 27 27 25 25 25 26 27 27 28 28 28 29 29
27 27 27 27 26 24 24 23 21 18 16 16 16 15 13 11 9 10 12 12 13 14 14 15 17 19 19 19 19 19 19 19 19 20 21 22 23 25 26 27 27 28 28 27 25 24 24 24 24 24 24 24 23 22 21 22 23 23 23 23 23 23 23 23 24 24 24 25 25 25 26 27 28 28 27 26 25 25 26 27 27 28 28 29 29
23 23 24 24 22 21 21 21 18 15 15 15 16 14 11 9 10 11 11 12 13 14 14 16 18 19 18 17 17 18 19 19 20 21 22 23 24 25 26 27 28 28 28 27 26 25 26 26 27 27 26 26 26 25 24 24 25 26 27 26 25 25 24 23 23 24 24 24 24 24 25 26 27 27 27 26 25 25 26 27 27 28 28 29 30
19 19 20 19 19 19 19 18 15 14 15 15 14 11 9 9 10 10 11 13 14 14 15 17 18 17 16 16 16 17 18 19 20 22 23 24 25 26 27 27 27 28 28 27 26 26 26 27 28 28 27 27 28 27 27 27 27 28 28 27 27 27 27 26 24 24 24 24 25 24 24 25 26 26 26 25 25 25 26 26 27 27 28 29 29
14 14 15 16 17 18 18 16 13 14 15 13 11 9 9 10 10 10 12 13 14 14 16 17 17 16 15 15 15 16 18 19 21 22 24 26 27 27 27 27 26 26 26 25 26 26 27 28 29 29 29 29 30 29 28 28 28 27 28 28 27 28 29 29 27 26 25 25 25 25 25 25 25 25 25 25 24 25 26 27 27 27 28 29 29
11 13 14 15 16 17 16 14 13 13 12 11 9 9 10 10 11 12 13 13 14 15 15 16 16 15 14 15 15 17 18 20 22 24 26 27 27 27 26 26 26 25 25 25 26 26 28 29 29 30 30 30 30 30 29 28 27 27 27 27 27 28 30 31 30 29 28 27 27 27 26 25 25 25 24 24 25 25 26 27 27 28 29 30 29
10 12 12 12 13 14 13 13 12 11 10 9 8 9 10 11 12 12 13 13 14 15 15 15 15 14 14 15 16 18 20 22 24 26 27 27 26 26 25 25 25 25 25 26 27 28 30 30 29 30 30 29 29 29 28 28 27 27 26 26 27 27 28 29 31 31 31 30 29 28 27 26 25 25 25 25 25 25 25 26 26 28 29 28 28
10 10 11 13 14 13 12 12 11 9 8 8 8 9 10 11 12 12 13 14 14 14 14 14 13 13 15 16 18 20 22 24 26 26 26 26 26 25 25 25 25 26 27 29 31 31 31 30 30 29 29 29 28 27 26 26 26 26 25 25 25 26 26 27 29 30 31 32 31 30 29 28 27 26 25 25 25 25 25 26 26 27 27 26 26
14 14 14 14 14 13 11 10 9 8 7 8 8 10 11 11 12 13 13 14 13 13 13 13 13 14 16 17 20 22 24 24 25 24 25 25 25 25 25 26 27 29 31 33 33 31 29 29 29 29 29 28 27 25 25 25 25 25 24 23 24 24 24 25 27 30 31 32 32 32 31 29 28 28 27 26 26 26 26 26 26 26 26 25 25
16 15 14 11 10 9 8 7 7 7 8 9 10 11 11 12 13 13 13 12 12 12 12 13 14 15 17 20 22 23 23 24 24 24 24 25 26 27 28 29 31 32 33 33 30 28 27 28 29 30 29 27 27 26 26 26 26 25 24 23 23 23 23 25 27 29 30 31 33 33 32 31 30 30 30 28 28 28 28 28 27 27 26 25 25
14 12 10 8 6 5 5 6 7 8 9 10 11 12 12 12 12 11 11 11 11 11 12 14 15 17 19 21 22 23 24 25 25 25 26 28 29 31 32 32 32 31 29 28 26 26 27 28 28 30 30 29 28 28 28 28 27 26 25 24 24 23 24 25 27 28 28 30 32 33 32 32 31 31 31 30 30 30 30 29 28 27 27 26 26
10 9 7 5 4 5 6 7 8 9 10 10 11 11 11 10 10 10 9 10 11 12 14 16 18 19 21 22 23 24 26 26 27 27 29 30 31 31 31 30 28 27 25 24 25 25 26 26 27 29 30 30 30 30 29 29 28 27 26 26 25 25 26 27 26 26 26 28 30 31 31 31 31 31 31 31 32 32 32 31 30 28 28 28 27
7 5 3 3 4 5 6 7 7 8 8 9 9 8 8 8 8 9 9 10 12 14 16 18 19 20 21 22 24 25 27 28 29 29 30 30 30 29 28 27 26 25 24 24 25 25 25 26 28 29 29 30 31 31 30 29 27 26 27 27 27 27 27 27 28 28 26 26 26 27 28 29 30 30 31 31 32 33 33 33 32 30 30 29 28
5 4 2 3 3 4 5 5 5 5 5 5 5 6 6 7 8 9 10 12 13 15 17 18 19 20 21 23 25 27 28 29 28 28 28 29 29 28 26 25 24 25 25 24 24 24 25 26 28 29 29 30 32 32 31 29 27 27 27 28 28 28 26 25 27 29 29 27 26 25 26 26 27 27 29 29 30 31 32 33 32 31 30 29 28
4 3 2 2 2 3 4 3 3 3 3 3 4 5 6 7 8 10 11 13 14 16 17 18 19 19 21 25 28 28 28 27 27 28 29 29 29 28 25 24 24 23 22 22 22 24 25 26 26 28 28 30 31 33 32 31 30 30 30 29 29 28 26 24 25 28 28 28 28 27 27 26 25 25 26 27 27 28 29 30 31 30 28 27 26
2 1 1 1 2 2 2 2 2 2 1 2 4 5 6 7 9 10 12 13 15 16 17 18 19 20 24 28 28 27 26 27 28 29 29 29 29 27 24 23 23 22 21 21 22 23 24 25 26 27 28 28 30 32 32 32 32 32 32 31 31 30 28 26 26 27 27 28 29 30 28 26 25 26 26 27 27 27 26 26 27 27 25 25 25
1 1 1 2 2 2 2 2 2 1 1 3 5 6 7 8 9 11 12 14 15 16 17 18 20 23 26 27 26 25 26 27 26 27 28 29 30 29 27 24 23 23 23 23 23 24 26 26 27 28 28 28 29 30 31 31 31 31 32 32 32 32 31 29 27 27 28 28 31 31 28 25 25 26 27 28 28 27 25 24 23 23 23 23 24
Wind_Direction
133 126 129 126 126 136 152 175 190 197 200 203 213 219 227 234 232 233 240 239 239 239 241 245 247 247 247 246 247 249 252 259 259 256 257 262 266 271 274 275 276 279 281 280 280 279 276 272 269 265 264 265 267 268 268 267 264 263 263 265 268 272 273 272 270 269 270 274 281 289 292 292 285 270 259 256 255 253 249 247 245 241 240 240 240
142 133 129 126 128 136 142 152 168 191 202 206 215 218 221 231 233 232 235 236 239 241 242 246 248 248 250 252 254 255 259 263 262 262 264 269 274 275 276 277 279 281 283 282 278 277 276 274 272 267 264 263 261 259 258 256 254 256 257 260 265 269 273 272 267 265 267 273 282 291 295 295 289 275 260 254 253 253 252 251 249 246 245 244 244
147 145 136 129 129 134 138 143 151 168 187 195 203 209 216 225 228 231 236 237 241 244 243 245 247 248 252 259 264 263 264 266 268 271 274 276 278 279 280 282 284 285 286 286 283 279 277 276 272 263 259 257 252 251 252 252 252 253 254 257 261 263 267 269 268 266 265 269 280 290 295 297 293 283 269 258 253 253 256 257 254 250 249 248 246
150 147 144 139 134 133 134 137 145 155 168 181 191 203 215 223 226 229 233 235 238 240 241 241 244 248 255 263 267 265 265 271 278 283 284 283 281 280 280 281 284 287 290 292 291 285 280 278 268 255 251 249 245 247 251 254 255 254 254 255 258 259 263 267 270 268 264 263 267 275 287 296 296 291 282 269 260 258 259 258 254 250 249 246 246
156 151 149 146 146 147 146 146 155 163 167 175 193 209 215 218 224 225 226 231 232 235 241 245 246 251 258 261 263 267 274 282 282 280 280 282 283 283 281 280 282 286 289 290 291 291 290 283 271 256 250 248 246 250 254 256 258 257 256 255 256 258 261 264 266 266 264 260 257 260 268 280 289 297 296 280 262 259 259 257 253 251 252 249 248
165 158 153 149 153 159 158 155 160 168 169 170 182 201 215 220 225 230 231 234 234 235 241 246 247 250 257 264 271 277 283 284 280 279 280 282 286 287 286 288 287 286 289 290 291 297 299 295 291 283 270 258 250 252 254 256 257 258 258 257 256 257 259 260 262 263 262 257 253 257 258 259 270 289 293 283 269 258 249 254 255 252 257 257 254
176 170 161 153 153 160 162 161 164 169 171 172 177 188 211 228 235 235 232 237 245 248 243 243 247 254 264 275 277 274 277 281 282 287 291 293 296 293 290 292 292 291 291 291 293 297 300 303 304 297 287 274 258 253 254 256 257 256 257 258 256 255 254 256 259 259 257 254 252 255 256 257 265 276 279 277 279 269 247 245 253 258 267 267 264
180 176 171 160 153 153 157 161 165 165 168 175 179 186 200 210 222 224 210 213 232 239 231 231 235 253 267 261 260 261 272 291 299 303 304 304 304 299 298 300 303 306 304 303 301 299 300 304 304 296 289 280 266 258 256 257 258 257 255 255 255 254 254 256 258 255 253 253 253 253 254 255 258 265 269 270 273 272 260 248 248 262 271 267 267
179 171 171 166 153 147 146 149 154 155 157 161 162 168 177 173 168 171 167 160 151 137 143 161 167 183 222 229 238 255 278 302 307 307 305 304 304 303 306 308 312 320 324 324 320 310 305 305 305 301 296 287 275 268 263 261 262 260 257 255 255 255 253 254 255 253 252 252 253 254 255 255 253 254 259 260 260 265 267 261 257 267 269 260 263
176 166 164 163 151 142 137 141 149 152 154 158 162 167 170 170 169 170 176 182 179 171 174 183 195 212 229 240 259 271 283 292 293 298 301 301 302 302 302 304 308 312 316 320 316 311 309 310 312 312 308 299 290 281 270 261 261 262 261 257 255 256 256 255 256 255 254 255 255 255 253 251 249 248 250 253 253 256 262 266 266 272 273 260 257
175 167 167 164 155 146 138 142 151 156 157 156 163 172 176 181 184 184 191 200 205 208 212 215 220 230 245 257 274 278 282 290 298 305 307 306 305 302 300 301 302 304 304 304 299 295 296 302 308 311 308 302 295 287 277 267 260 259 261 258 256 257 257 257 258 257 257 256 254 253 252 252 251 251 251 250 250 250 256 265 265 270 276 265 256
178 174 174 171 166 156 145 148 152 151 145 127 125 149 165 174 185 198 208 212 212 215 222 229 235 253 282 297 305 307 308 316 324 327 327 325 320 314 311 307 304 301 298 295 290 286 286 287 293 298 296 293 292 288 283 278 268 261 262 260 258 259 258 257 258 258 261 261 258 255 255 256 254 254 253 251 250 250 255 263 264 267 274 269 266
185 181 181 179 174 161 148 150 148 142 130 106 99 112 121 121 113 110 101 87 210 196 194 297 337 311 326 342 343 337 334 334 335 335 335 333 329 324 321 318 315 310 304 297 287 279 278 279 281 285 286 287 289 288 287 287 290 296 289 275 266 264 261 259 260 260 261 262 263 260 257 256 256 254 253 252 252 251 252 258 262 265 270 271 274
190 188 187 184 178 164 150 152 148 139 122 104 106 107 103 94 85 77 63 48 52 87 69 31 21 10 4 359 349 341 335 332 331 330 330 329 328 324 321 320 318 316 314 308 294 279 275 277 277 277 279 283 285 286 288 291 297 307 308 300 288 275 268 264 264 263 258 255 256 257 255 255 255 253 250 250 251 251 250 254 258 262 265 269 273
194 193 192 187 177 164 157 158 155 143 127 125 128 116 101 86 79 71 59 50 48 54 40 28 31 28 16 0 348 337 328 324 322 322 323 321 319 316 314 313 313 313 313 309 301 289 281 278 277 276 275 276 279 282 283 287 293 297 303 309 305 289 278 272 271 270 264 258 255 254 254 255 254 251 248 247 248 249 251 253 256 261 264 266 269
195 196 193 186 177 171 169 167 163 150 135 140 140 126 108 89 81 72 62 52 43 38 32 28 26 17 4 351 342 334 329 326 321 319 317 314 312 310 309 310 312 314 312 306 298 290 284 281 279 278 276 275 275 277 278 280 286 290 296 300 299 297 293 284 282 279 271 264 259 254 253 254 254 251 248 248 248 250 254 255 256 259 262 264 266
196 196 192 188 184 181 179 175 167 147 131 132 136 128 114 99 83 65 53 43 34 28 20 10 2 355 345 337 334 334 334 330 324 319 314 311 311 309 309 311 312 313 311 304 295 287 283 281 280 280 279 278 276 276 278 280 282 285 289 292 293 294 293 289 293 292 282 273 265 257 255 255 255 254 253 253 254 256 256 254 252 253 258 261 263
196 195 192 193 193 189 184 177 165 146 133 131 133 131 126 121 101 51 22 8 12 10 356 346 341 337 330 327 329 333 333 330 327 323 317 314 313 310 311 310 310 309 306 301 294 288 285 282 282 281 280 280 279 278 278 280 282 284 285 286 285 286 287 287 290 291 289 284 274 265 261 260 259 260 261 258 256 255 253 250 247 247 251 255 258
197 195 194 197 198 196 185 170 165 157 145 138 139 145 145 145 155 274 330 333 334 321 312 310 312 318 322 325 329 331 331 332 332 328 321 317 313 310 311 310 310 311 308 306 301 295 292 289 287 286 284 283 281 280 278 277 278 279 280 281 280 280 281 280 280 283 285 284 280 275 270 267 266 266 265 262 258 255 254 251 249 247 247 250 255
199 196 198 200 201 200 184 167 168 164 155 151 153 159 164 171 192 245 296 312 311 301 294 293 301 312 320 325 329 328 329 332 334 331 325 320 318 317 317 316 318 319 317 316 312 308 305 302 299 297 294 292 287 282 277 274 272 272 273 274 276 278 277 276 276 278 280 281 281 280 277 274 272 270 267 264 262 260 259 257 254 252 251 251 253
202 200 200 202 204 198 180 170 175 172 167 169 169 170 176 190 220 260 290 309 307 295 288 291 300 312 322 326 327 325 327 332 334 333 329 329 329 329 327 326 326 327 325 323 320 316 313 309 307 305 303 301 297 291 282 275 272 269 269 270 272 274 276 278 278 278 279 281 281 281 278 276 274 273 271 269 266 265 264 262 260 258 257 254 254
203 203 201 204 205 195 178 174 181 180 179 181 184 188 194 211 241 261 284 311 314 302 293 298 310 322 327 329 328 327 331 336 336 334 335 337 337 337 336 334 333 333 331 329 326 321 316 312 309 306 303 301 299 298 292 284 278 274 272 271 271 272 274 277 279 278 277 278 278 278 278 277 275 272 271 271 270 269 267 266 264 261 260 258 257
206 204 203 205 205 194 181 180 185 185 184 187 195 206 214 229 241 252 280 312 330 325 315 322 330 331 330 328 328 331 337 338 337 339 342 343 343 345 345 344 342 340 337 334 329 324 320 316 312 308 304 299 295 295 293 290 286 282 278 275 273 273 274 275 276 276 275 273 273 273 273 273 273 271 270 269 269 269 268 267 265 261 260 259 258
208 205 204 205 205 198 190 190 192 189 187 190 197 206 218 233 241 253 271 298 333 342 336 334 333 330 328 328 330 335 338 337 336 341 348 351 352 353 351 348 345 342 339 336 331 326 321 317 315 312 307 302 295 290 289 290 289 286 283 279 275 272 272 272 273 274 273 272 271 271 269 268 269 270 271 270 270 271 270 270 268 263 260 258 258
209 206 204 205 205 203 199 199 198 195 193 193 197 206 216 232 243 254 266 288 328 340 334 329 327 326 327 330 332 334 335 334 334 339 350 355 354 351 350 347 344 342 339 337 333 328 322 318 316 314 311 307 301 293 288 287 287 287 285 282 278 273 270 270 270 271 271 271 271 270 269 268 267 268 269 269 271 273 272 272 271 268 265 262 262
210 208 206 206 207 206 204 204 204 202 201 199 202 209 216 235 246 251 263 289 327 334 329 325 322 322 326 328 330 330 330 329 328 336 348 350 348 346 345 344 342 339 338 336 335 330 323 317 315 314 312 310 306 300 294 289 287 286 284 283 280 277 273 269 268 268 269 270 270 270 269 267 266 266 266 267 269 270 272 272 272 271 269 268 266
212 210 208 208 208 208 207 207 206 206 207 207 211 216 223 241 252 253 264 292 325 329 326 320 317 321 325 327 328 327 325 324 323 332 341 342 340 339 339 340 339 337 336 335 334 331 324 316 312 311 310 309 307 304 299 294 290 287 285 283 281 278 276 272 269 267 267 268 269 269 269 267 266 265 265 265 266 267 269 271 272 273 272 270 269
212 211 211 211 210 209 208 208 208 209 211 213 217 224 233 248 256 256 263 289 319 325 322 315 316 324 327 326 326 325 322 319 319 325 332 334 333 332 332 335 335 335 335 335 333 330 324 316 309 305 305 305 306 305 302 296 292 288 285 283 281 279 277 275 273 270 268 267 268 268 269 269 268 266 265 264 266 267 269 269 270 271 272 272 271
212 213 214 214 213 211 208 208 209 210 213 216 219 226 233 245 254 254 260 285 312 322 321 315 317 324 325 323 325 324 320 316 315 319 323 326 325 324 326 329 331 332 333 333 332 330 325 317 309 303 301 301 302 304 303 299 294 289 286 284 282 281 279 277 276 273 270 267 266 266 268 268 269 268 266 264 264 266 268 268 268 268 269 270 271
213 215 215 216 216 214 210 208 210 212 214 217 221 228 235 246 254 254 259 283 306 318 321 319 318 320 319 319 321 322 320 317 316 316 318 320 320 319 322 325 327 329 331 331 332 330 326 320 314 307 302 299 298 300 301 299 294 290 288 285 283 281 280 279 278 276 274 270 267 265 266 267 268 268 268 267 265 265 266 266 265 266 266 268 269
216 216 216 217 217 216 212 210 211 214 216 219 224 231 238 248 254 253 258 284 306 317 321 317 315 314 314 315 317 320 321 319 317 315 315 316 316 317 320 323 325 326 328 330 332 330 326 322 317 312 306 300 297 295 296 296 292 289 286 284 283 281 280 279 278 278 278 276 273 270 267 266 267 267 268 268 267 266 265 265 265 265 266 266 268
216 216 217 218 218 218 215 213 214 216 218 221 226 231 239 250 253 249 257 288 309 321 323 317 313 313 313 316 316 318 320 320 319 317 314 313 314 316 320 322 322 323 325 327 330 328 324 320 317 313 307 302 297 293 292 291 290 289 286 284 282 281 280 279 278 278 278 279 278 276 272 270 268 267 266 267 267 266 265 265 266 265 265 264 264
218 218 218 219 220 220 218 215 217 219 220 223 226 232 244 251 248 246 263 291 308 321 324 320 317 316 316 316 315 316 319 319 319 317 314 313 315 317 319 319 320 321 322 324 326 325 321 318 317 316 311 305 301 298 295 292 290 289 288 285 283 281 280 280 280 279 279 278 278 278 276 274 272 270 268 267 267 266 266 265 265 265 265 263 262
221 221 221 221 221 221 219 218 220 221 221 223 227 234 245 247 243 251 274 290 299 312 319 320 319 319 316 313 312 313 316 317 316 315 314 314 316 316 316 316 317 318 320 321 322 321 319 316 316 317 315 311 308 305 301 297 293 291 290 288 285 282 281 282 282 283 282 280 278 278 277 277 277 274 271 269 269 269 268 267 266 266 266 264 263
224 224 223 222 222 222 219 218 219 219 219 221 226 233 237 238 245 266 282 288 291 302 312 314 315 316 313 310 309 311 312 313 313 314 313 314 314 313 313 313 314 316 318 319 318 318 318 316 314 313 313 312 311 309 307 303 298 296 295 293 289 286 283 282 283 284 285 283 281 278 277 277 278 277 274 272 271 271 271 270 268 268 268 267 265
231 228 225 223 224 223 220 218 215 213 214 218 226 232 234 239 259 277 283 286 290 298 304 306 309 312 312 310 309 309 310 312 313 313 312 312 312 311 312 312 313 314 315 315 315 315 315 315 314 312 311 308 306 305 304 302 300 299 299 298 295 291 287 284 282 282 283 283 282 280 277 276 276 276 275 274 272 272 272 271 270 270 269 268 266
235 231 228 226 224 222 220 216 210 206 212 221 226 228 233 249 267 277 285 290 293 296 298 302 309 312 312 311 309 309 311 313 313 313 312 313 313 313 313 313 312 312 312 312 312 312 311 312 312 312 310 306 303 301 300 299 298 298 298 298 296 292 288 286 282 280 280 281 281 281 279 277 276 275 275 274 272 271 270 270 270 270 270 269 268
238 232 227 223 222 220 215 210 205 208 217 221 222 225 237 257 269 280 289 292 291 291 296 304 311 313 312 311 311 311 312 311 312 313 315 316 316 315 313 311 310 310 310 310 310 309 308 307 308 308 308 306 303 302 302 300 298 297 296 295 293 290 286 284 283 281 279 278 278 279 279 279 278 277 276 276 274 272 270 269 269 269 269 270 270
237 229 222 217 215 212 205 201 206 214 215 214 217 230 247 263 274 281 282 281 283 290 301 308 311 311 311 313 312 311 311 312 314 317 318 317 316 314 312 309 308 308 309 309 308 307 306 306 307 307 306 304 303 303 304 303 302 299 295 292 290 287 286 284 284 283 281 278 276 276 277 278 278 278 277 276 274 272 271 271 271 270 270 269 269
217 212 212 211 208 203 200 200 205 209 207 209 224 242 257 267 271 271 272 276 287 300 308 310 309 310 312 313 313 312 313 315 317 318 317 317 316 314 312 309 308 308 308 307 307 307 306 306 306 306 305 304 304 303 304 304 303 301 297 293 288 286 285 285 285 283 282 279 277 276 275 276 277 277 276 274 272 271 271 271 271 270 269 269 270
196 199 200 198 194 192 193 191 190 195 204 218 239 253 259 261 261 265 273 286 299 306 308 307 309 313 314 314 314 314 314 316 317 317 318 318 317 315 313 311 309 308 308 308 309 309 309 308 308 307 306 306 306 305 304 303 302 300 297 293 289 286 286 287 286 284 281 278 277 277 276 275 277 277 276 275 273 272 271 270 269 268 269 270 272
164 168 172 172 170 169 173 177 183 197 218 234 251 256 253 255 262 273 286 297 304 305 304 308 314 316 316 315 315 315 317 319 319 319 318 317 317 315 313 311 310 309 310 311 312 312 311 310 311 311 310 309 308 307 305 303 302 301 298 293 289 287 288 287 286 285 283 279 276 275 274 275 276 277 277 275 274 273 271 269 268 268 269 269 270
144 147 155 162 162 163 170 183 197 217 235 248 254 253 255 264 275 286 295 299 301 303 307 314 317 316 316 317 318 320 321 321 321 320 318 317 316 315 312 311 310 309 310 311 313 312 311 311 313 314 314 313 311 309 306 304 305 306 304 298 292 289 288 287 285 284 284 281 277 273 271 272 273 274 275 275 274 273 271 269 269 268 268 267 267
142 145 152 161 169 174 184 202 221 237 247 251 253 257 268 279 286 293 298 300 304 310 315 318 318 318 320 321 322 322 322 321 322 320 319 317 316 314 312 311 310 309 310 312 313 313 312 312 314 315 315 316 315 312 309 309 309 310 308 303 297 293 290 286 282 281 282 281 278 274 271 270 269 269 270 270 270 270 270 270 269 268 267 267 267
146 149 155 167 180 195 213 228 238 245 249 254 261 270 280 287 292 299 303 307 313 317 318 320 322 323 324 323 323 323 322 322 322 321 320 319 317 315 314 313 312 313 314 316 316 314 313 312 313 314 315 315 315 313 312 311 311 310 308 304 299 294 292 289 285 281 279 278 277 275 273 271 268 268 268 268 267 267 269 270 270 269 268 267 267
151 155 163 181 205 231 242 244 246 252 258 265 272 278 285 293 301 308 311 315 317 318 320 324 325 326 326 325 324 323 322 322 322 322 322 321 320 320 319 319 319 320 320 318 316 314 313 313 313 313 314 314 313 312 310 309 308 307 305 302 299 297 298 297 294 289 283 279 277 275 274 272 270 269 268 268 267 267 268 269 270 269 270 269 268
146 150 168 210 235 244 246 249 254 259 265 270 275 285 297 307 314 317 317 317 318 320 323 326 327 327 327 327 326 326 325 324 323 323 323 323 324 325 324 323 324 323 321 318 315 313 313 313 312 311 311 311 310 309 309 309 308 305 302 300 300 299 298 299 301 300 298 293 286 279 274 271 270 269 268 268 268 267 267 268 269 268 269 269 269
144 152 176 218 238 238 238 245 254 261 269 277 288 304 315 318 319 318 317 318 320 322 325 327 327 327 327 329 330 330 328 326 325 325 325 325 325 326 325 323 323 322 319 316 315 314 314 313 312 311 311 310 308 306 306 307 307 304 300 298 297 293 288 290 297 301 303 302 297 288 280 274 269 268 270 270 269 268 268 269 269 269 269 269 269
152 160 180 208 228 232 235 245 262 273 282 297 314 324 324 321 319 318 319 323 325 326 327 327 326 326 328 330 331 330 329 328 327 326 325 323 321 320 318 317 319 321 320 317 317 318 318 315 313 312 312 311 308 305 303 302 300 299 297 294 293 290 285 285 291 295 297 299 297 292 287 283 278 273 271 269 268 269 271 271 270 271 270 268 266
165 172 200 209 218 231 245 268 278 278 293 326 335 334 328 323 321 322 325 328 329 329 328 327 326 327 330 331 332 332 332 331 329 327 325 324 321 317 314 313 316 319 319 318 317 319 320 319 315 311 310 309 307 306 304 299 295 293 293 291 288 287 285 285 286 287 289 293 295 292 288 286 286 284 279 276 274 274 274 272 271 271 269 267 264
204 240 214 210 224 250 287 300 282 277 321 342 343 339 330 325 324 326 329 331 331 330 330 330 330 330 331 332 334 334 333 331 331 331 332 331 329 325 322 319 319 319 320 318 316 318 321 322 320 315 311 308 307 307 306 301 295 291 290 289 286 284 284 284 284 284 285 287 291 292 289 287 288 287 283 280 279 276 273 271 271 270 267 265 263